{"data":{"norad_id":58347,"intl_designator":"2023-175B","name":"O3B MPOWER F6","alt_names":[],"object_type":"PAYLOAD","status":"ACTIVE","operator":null,"country":"O3B","launch_date":"2023-11-12","launch_site_code":"AFETR","launch_vehicle":null,"mission":null,"orbit_class":"UNKNOWN","rcs_meters":null,"size_class":null,"mass_kg":null,"dimensions":null,"purposes":["comms"],"wikipedia_slug":null,"has_3d_model":false,"image_url":null,"decayed_at":null,"tle_current":{"epoch":"2026-09-19T18:10:32.874816Z","epoch_age_seconds":78600,"freshness":"FRESH","line1":"1 58347U 23175B   26262.75732494 -.00000027  00000+0  00000+0 0  9992","line2":"2 58347   0.0580 356.1564 0004545 188.8993 174.9420  5.00115578 53081","mean_motion":5.00115578,"eccentricity":0.0004545,"inclination_deg":0.058,"raan_deg":356.1564,"arg_perigee_deg":188.8993,"mean_anomaly_deg":174.942,"bstar":0,"rev_number":5308,"period_min":287.93344245718,"perigee_km":8059.3239067683,"apogee_km":8072.4535261445,"semimajor_km":14444.025716456,"source":"CELESTRAK","updated_at":"2026-09-20T09:00:35.689907Z"}}}